Location: Colonia Mina de C?rbuni
(46.1667°N, 22.7167°E)
Time: 16:08:41
(UTC+00:00)

Courier 1B - Pass Details

Date: 30 April 2024
Orbit: 962 x 1208 km, 28.3° (Epoch: 23 May)

Event Time Altitude Azimuth Distance (km) Brightness Sun altitude
Rises 20:37:14 0° 226° (SW) 4,081 10.6 -24.0°
Enters shadow 20:39:31 - 217° (SW) 3,492 10.2 -24.1°
Reaches altitude 10° 20:41:07 10° 209° (SSW) 3,134 - -24.3°
Maximum altitude 20:46:01 18° 169° (S) 2,584 - -24.7°
Drops below altitude 10° 20:50:54 10° 130° (SE) 3,127 - -25.0°
Sets 20:54:46 0° 113° (ESE) 4,070 - -25.3°
